Overview Statistics Trail Chart Weather Telemetry Raw packets
 

This is the latest recevied weather packets stored in our database for station/object W7TRD. If no packets are shown the sender has not sent any weather packets the latest 10 day(s).

<< 70 71 72 73 74 75 76 >>
Time Temp. Humidity Pressure Rain* Wind** Luminosity Snow
1788120388 20° C 57% 1020.9 hPa 0 mm - 811 W/m² -
1788120103 20° C 56% 1020.6 hPa 0 mm - 825 W/m² -
1788119783 20.56° C 56% 1021 hPa 0 mm - 379 W/m² -
1788119480 20° C 56% 1020.9 hPa 0 mm - 950 W/m² -
1788119175 18.89° C 57% 1021.1 hPa 0 mm - 884 W/m² -
1788118875 19.44° C 57% 1020.9 hPa 0 mm - 200 W/m² -
1788118575 19.44° C 63% 1021.1 hPa 0 mm - 890 W/m² -
1788118270 20° C 55% 1021 hPa 0 mm - 213 W/m² -
1788117966 20.56° C 55% 1021.1 hPa 0 mm - 276 W/m² -
1788117665 20° C 55% 1021.3 hPa 0 mm - 305 W/m² -
1788117360 18.89° C 57% 1021.4 hPa 0 mm - 916 W/m² -
1788117056 18.33° C 63% 1021.3 hPa 0 mm - 788 W/m² -
1788116751 18.33° C 60% 1021.4 hPa 0 mm - 203 W/m² -
1788116447 18.33° C 60% 1021.6 hPa 0 mm - 220 W/m² -
1788116145 18.33° C 61% 1021.5 hPa 0 mm - 883 W/m² -
1788115841 18.89° C 58% 1021.6 hPa 0 mm - 426 W/m² -
1788115540 18.33° C 58% 1021.8 hPa 0 mm - 763 W/m² -
1788115234 17.78° C 60% 1021.7 hPa 0 mm - 700 W/m² -
1788114929 17.78° C 61% 1021.5 hPa 0 mm - 689 W/m² -
1788114630 17.22° C 64% 1021.8 hPa 0 mm - 165 W/m² -
1788114320 17.78° C 64% 1021.6 hPa 0 mm - 134 W/m² -
1788114017 18.33° C 63% 1021.6 hPa 0 mm - 218 W/m² -
1788113713 18.33° C 63% 1021.8 hPa 0 mm - 508 W/m² -
1788113411 17.78° C 63% 1021.6 hPa 0 mm - 634 W/m² -
1788113106 17.22° C 67% 1021.9 hPa 0 mm - 701 W/m² -

* Rain latest hour (hover to see other rain measurements)
** Current wind speed in m/s (hover to see current wind gust speed)